Elyria, OH

11:44 AM EST on February 09, 2016 (GMT -0500)
Lorain County Regional

Weather History for KLPR - November, 2012

Change the Weather History Date:

Friday, November 23, 2012

  Actual Average (KCLE) Record (KCLE)
Temperature  
Mean Temperature 42 °F 41 °F  
Max Temperature 55 °F 47 °F 75 °F (1931)
Min Temperature 30 °F 35 °F 6 °F (1880)
Degree Days  
Heating Degree Days 22 24  
Month to date heating degree days 456  
Since 1 July heating degree days 916  
Cooling Degree Days 0 0  
Month to date cooling degree days 0  
Year to date cooling degree days 816  
Moisture  
Dew Point 32 °F    
Average Humidity 71    
Maximum Humidity 86    
Minimum Humidity 55    
Precipitation  
Precipitation 0.04 in 0.12 in 1.32 in (1961)
Month to date precipitation 2.79  
Year to date precipitation 35.21  
Snow  
Snow 0.00 in 0.20 in - ()
Month to date snowfall 2.7  
Since 1 July snowfall 2.9  
Since 1 September snowfall 2.9  
Snow Depth -    
Sea Level Pressure  
Sea Level Pressure 29.91 in    
Wind  
Wind Speed 18 mph (West)    
Max Wind Speed 25 mph    
Max Gust Speed 40 mph    
Visibility 9 miles    
Events Rain , Snow    
T = Trace of Precipitation, MM = Missing Value Source: NWS Daily Summary

Daily Weather History Graph

Daily Weather History Graph

Search for Another Location

Airport or City:

Trip Planner

Search our weather history database for the weather conditions in past years. The results will help you decide how hot, cold, wet, or windy it might be!

Date:

Astronomy

Nov. 23, 2012 Rise Set
Actual Time 7:26 AM EST 5:03 PM EST
Civil Twilight 6:56 AM EST 5:33 PM EST
Nautical Twilight 6:22 AM EST 6:07 PM EST
Astronomical Twilight 5:49 AM EST 6:40 PM EST
Moon 2:19 PM EST (11/23) 2:42 AM EST (11/23)
Length of Visible Light 10h 36m
Length of Day
9h 36m
Waxing Gibbous, 79% of the Moon is Illuminated
Nov 23
Waxing Gibbous
Nov 28
Full
Dec 6
Last Quarter
Dec 13
New
Dec 20
First Quarter

Hourly Weather History & Observations

Time (EST) Temp. Windchill Dew Point Humidity Pressure Visibility Wind Dir Wind Speed Gust Speed Precip Events Conditions
12:53 AM 53.1 °F - 37.9 °F 57% 29.90 in 10.0 mi South 16.1 mph - N/A   Clear
1:53 AM 53.1 °F - 39.0 °F 59% 29.88 in 10.0 mi SSW 12.7 mph 19.6 mph N/A   Mostly Cloudy
2:53 AM 55.0 °F - 39.0 °F 55% 29.85 in 10.0 mi SW 17.3 mph - N/A   Mostly Cloudy
3:53 AM 55.0 °F - 39.9 °F 57% 29.83 in 10.0 mi SW 17.3 mph 23.0 mph N/A   Overcast
4:23 AM 53.6 °F - 42.8 °F 67% 29.83 in 10.0 mi SW 16.1 mph 24.2 mph 0.00 in Rain Light Rain
4:53 AM 52.0 °F - 44.1 °F 74% 29.83 in 10.0 mi SW 19.6 mph 24.2 mph 0.01 in Rain Light Rain
5:53 AM 53.1 °F - 45.0 °F 74% 29.81 in 10.0 mi WSW 20.7 mph 27.6 mph 0.01 in   Overcast
6:53 AM 51.1 °F - 46.9 °F 86% 29.81 in 10.0 mi WSW 17.3 mph 24.2 mph 0.00 in   Overcast
7:53 AM 52.0 °F - 46.9 °F 83% 29.81 in 10.0 mi WSW 15.0 mph 23.0 mph N/A   Mostly Cloudy
8:07 AM 51.8 °F - 46.4 °F 82% 29.81 in 10.0 mi WSW 21.9 mph - N/A   Scattered Clouds
8:53 AM 48.9 °F - 42.1 °F 77% 29.83 in 10.0 mi West 18.4 mph 26.5 mph N/A   Partly Cloudy
9:53 AM 45.0 °F 38.2 °F 37.9 °F 76% 29.85 in 10.0 mi West 15.0 mph 23.0 mph N/A   Partly Cloudy
10:05 AM 46.4 °F 39.0 °F 37.4 °F 71% 29.85 in 10.0 mi West 19.6 mph 29.9 mph N/A   Mostly Cloudy
10:53 AM 44.1 °F 35.2 °F 34.0 °F 68% 29.87 in 10.0 mi West 23.0 mph 33.4 mph N/A   Mostly Cloudy
11:12 AM 44.6 °F 35.7 °F 33.8 °F 66% 29.86 in 10.0 mi West 24.2 mph 29.9 mph N/A   Scattered Clouds
11:40 AM 44.6 °F 38.1 °F 33.8 °F 66% 29.85 in 10.0 mi West 13.8 mph 25.3 mph N/A   Mostly Cloudy
11:53 AM 41.0 °F 31.1 °F 32.0 °F 70% 29.86 in 10.0 mi West 23.0 mph 32.2 mph N/A   Overcast
12:53 PM 41.0 °F 30.7 °F 30.0 °F 65% 29.85 in 10.0 mi WSW 25.3 mph 34.5 mph N/A   Overcast
1:53 PM 39.0 °F 29.3 °F 28.9 °F 67% 29.86 in 10.0 mi West 19.6 mph 31.1 mph N/A   Overcast
2:53 PM 37.0 °F 25.4 °F 28.9 °F 73% 29.89 in 9.0 mi West 25.3 mph 40.3 mph 0.00 in Snow Light Snow
3:31 PM 37.4 °F 27.5 °F 26.6 °F 65% 29.89 in 10.0 mi WNW 18.4 mph 29.9 mph 0.00 in   Overcast
3:53 PM 36.0 °F 26.7 °F 28.0 °F 73% 29.92 in 4.0 mi West 15.0 mph 24.2 mph 0.00 in Snow Light Snow
4:11 PM 33.8 °F 22.8 °F 28.4 °F 81% 29.92 in 2.0 mi West 18.4 mph 28.8 mph 0.01 in Snow Light Snow
4:20 PM 33.8 °F 23.2 °F 26.6 °F 75% 29.93 in 7.0 mi WNW 17.3 mph 31.1 mph 0.01 in Snow Light Snow
4:33 PM 33.8 °F 22.5 °F 26.6 °F 75% 29.94 in 9.0 mi WNW 19.6 mph 33.4 mph 0.01 in Snow Light Snow
4:53 PM 33.1 °F 23.0 °F 26.1 °F 75% 29.96 in 9.0 mi West 15.0 mph 27.6 mph 0.01 in Snow Light Snow
5:53 PM 33.1 °F 21.9 °F 23.0 °F 66% 29.99 in 10.0 mi West 18.4 mph 34.5 mph 0.00 in Snow Light Snow
6:23 PM 32.0 °F 20.5 °F 24.8 °F 75% 29.99 in 9.0 mi West 18.4 mph 27.6 mph 0.01 in Snow Light Snow
6:53 PM 32.0 °F 21.2 °F 24.1 °F 73% 30.02 in 7.0 mi West 16.1 mph 25.3 mph 0.01 in Snow Light Snow
7:09 PM 32.0 °F 19.8 °F 24.8 °F 75% 30.00 in 9.0 mi West 20.7 mph 26.5 mph 0.00 in Snow Light Snow
7:19 PM 32.0 °F 19.8 °F 24.8 °F 75% 30.00 in 9.0 mi West 20.7 mph 28.8 mph 0.00 in Snow Light Snow
7:53 PM 30.9 °F 17.8 °F 24.1 °F 76% 30.03 in 10.0 mi West 23.0 mph 27.6 mph 0.00 in   Overcast
8:53 PM 30.9 °F 19.4 °F 23.0 °F 72% 30.04 in 10.0 mi West 17.3 mph 26.5 mph 0.00 in   Overcast
9:53 PM 30.9 °F 19.8 °F 23.0 °F 72% 30.04 in 10.0 mi West 16.1 mph 24.2 mph N/A   Overcast
10:53 PM 32.0 °F 21.2 °F 23.0 °F 69% 30.04 in 10.0 mi West 16.1 mph 26.5 mph N/A   Overcast
11:53 PM 32.0 °F 20.1 °F 23.0 °F 69% 30.04 in 10.0 mi West 19.6 mph 31.1 mph N/A   Overcast